Location: Degersen
(52.2871°N, 9.5716°E)
Time: 21:24:32
(UTC+00:00)

CBERS-1 - Pass Details

Date: 20 January 2026
Orbit: 765 x 772 km, 98.9° (Epoch: 16 February)

Event Time Altitude Azimuth Distance (km) Brightness Sun altitude
Rises 05:33:04 0° 16° (NNE) 3,247 7.3 -15.7°
Reaches altitude 10° 05:35:23 10° 19° (NNE) 2,316 6.6 -15.4°
Maximum altitude 05:40:29 75° 104° (ESE) 800 4.2 -14.6°
Drops below altitude 10° 05:45:34 10° 190° (S) 2,302 6.5 -13.9°
Sets 05:47:52 0° 193° (SSW) 3,225 7.3 -13.5°
